FREGAT DEB, 45822

Orbit data source: Space-Track

FREGAT DEB, 45822 is space debris in LEO originally from a launch on Mon, 18 Jul 2011 UTC launched from the Tyuratam Missile And Space Complex (TTMTR). Debris objects in space refer to the collection of defunct objects orbiting the Earth. Examples of debris include non-operational satellites, rocket bodies, and fragments generated from explosions, collisions, or faulty payload assembly.

Loading next visibility...
Identifier
45822, 2011-037BG
Orbit
LEO
Country
Flag of CISCIS
Related business
Manufacturer
Lavochkin
Mission
Spacecraft
Bus & Motor
Unknown
Mass
Unknown
Launch date (UTC)
2011-07-18 (14 years ago)
Launch vehicle
Unknown
Launch site
Tyuratam Missile And Space Complex (TTMTR)
Object type
Payload
Rocket body
Debris
Shape & HBR
Unknown shape, 0.1 m
Radar Cross Section
Medium (>0.1 m² and <1 m²)

Expand to show TLE details & history
Last TLE update: 13 hours ago

TLE from 13 hours ago
0 FREGAT DEB
1 45822U 11037BG  25293.57424526  .00068020  00000-0  21601-1 0  9996
2 45822  51.3586 358.2903 1109023 172.9122 188.9001 12.72486446231985
Epoch: 2025-10-20T13:46Z
TLE epoch observation values (Epoch: 2025-10-20T13:46:54.790Z)
Latitude
-0.00001°
Longitude
122.2874°
Altitude
2,223.538 km
Speed
6.425 km/s
True Right ascension
23h 53m 09s
True Declination
0° 00' 00"
Sunlit
Object was in full shadow at epoch
Visualization orbit readout
Latitude
Unknown
Longitude
Unknown
Altitude
Unknown
Speed
Unknown
Apparent Right ascension
Unknown
Apparent Declination
Unknown
Sunlit
N/A
Visualization observer readout
Local Sidereal Time
21:46:57
Azimuth
Unknown
Elevation
Unknown
Doppler factor
Unknown
Orbital elements
Apogee altitude
2,231.868 km
Perigee altitude
512.78 km
Semi-major axis
7,750.461 km
Eccentricity
0.1109
Inclination
51.3586°
RAAN
358.2903°
Arg. of periapsis
172.9122°
True anomaly
187.17197°
Mean anomaly
188.9001°
Eccentric anomaly
188.0142°
Mean motion
3.18091 °/min
Orbital period
113.18 mins
BSTAR
0.021601
Loading maneuver chart data...
Computing Atmospheric mass density...
Loading historical data...
Loading historical data...
Loading historical data...
Loading historical data...
Loading historical data...
Loading historical data...
Loading historical data...

Documentation

Showing up to 5 results
|